Location: Moscow
(38.8570°N, 84.2291°W)
Time: 12:34:26
(UTC+00:00)

AO-27 - Visible Passes

Search period start: 10 March 2026 00:00
Search period end: 20 March 2026 00:00
Orbit: 782 x 795 km, 98.7° (Epoch: 10 March)

Date Brightness Start Highest point End Pass type
(mag) Time Alt. Az. Time Alt. Az. Time Alt. Az.
10 Mar 10.4 03:17:52 12° NNW 03:17:52 12° NNW 03:18:16 10° NNW visible
11 Mar 10.0 02:47:27 15° N 02:47:27 15° N 02:48:17 10° N visible
12 Mar 9.9 02:17:02 14° NNE 02:17:02 14° NNE 02:17:56 10° N visible
13 Mar 9.9 01:46:37 11° NNE 01:46:37 11° NNE 01:47:01 10° NNE visible
13 Mar 10.4 03:27:18 13° NNW 03:27:18 13° NNW 03:27:52 10° NNW visible
14 Mar 10.0 02:56:53 17° N 02:56:53 17° N 02:57:59 10° N visible
15 Mar 9.7 02:26:28 17° N 02:26:28 17° N 02:27:45 10° N visible
16 Mar 9.8 01:56:03 14° NNE 01:56:03 14° NNE 01:57:04 10° NNE visible
16 Mar 10.4 03:36:44 14° NNW 03:36:44 14° NNW 03:37:25 10° NNW visible
17 Mar 9.9 03:06:19 18° NNW 03:06:19 18° NNW 03:07:39 10° NNW visible
18 Mar 9.6 02:35:54 20° N 02:35:54 20° N 02:37:32 10° N visible
19 Mar 9.6 02:05:29 17° NNE 02:05:29 17° NNE 02:07:01 10° NNE visible
19 Mar 10.4 03:46:10 14° NNW 03:46:10 14° NNW 03:46:56 10° NNW visible
